Tracking 19245 objects as of 19-Aug-2018
HD Live streaming from Space Station
objects crossing your sky now

NOAA 16 DEB

Track NOAA 16 DEB now!
10-day predictions


NORAD ID: 42335
Int'l Code: 2000-055QB
Perigee: 818.0 km
Apogee: 866.6 km
Inclination: 98.7 °
Period: 101.6 minutes
Semi major axis: 7213 km
RCS: Unknown
Launch date: September 21, 2000
Source: United States (US)
Launch site: AIR FORCE WESTERN TEST RANGE (AFWTR)

Note: This is SATELLITE DEBRIS
aabbcc
Your satellite tracking list
Your tracking list is empty




NASA's NSSDC Master Catalog

Two Line Element Set (TLE):
1 42335U 00055QB  18230.02637157  .00000484  00000-0  26064-3 0  9999
2 42335  98.7498 298.2339 0033646 199.9049 160.0815 14.17105269126560
Source of the keplerian elements: AFSPC